Weather History for La Grande, OR

Change the Weather History Date:

Tuesday, November 6, 2012

  Actual Average Record
Temperature  
Mean Temperature 54 °F -  
Max Temperature 68 °F 48 °F 73 °F (2010)
Min Temperature 41 °F 31 °F 8 °F (2003)
Degree Days  
Heating Degree Days 10    
Growing Degree Days 4 (Base 50)    
Moisture  
Dew Point 37 °F    
Average Humidity 49    
Maximum Humidity 76    
Minimum Humidity 35    
Precipitation  
Precipitation 0.00 in - - ()
Sea Level Pressure  
Sea Level Pressure 30.09 in    
Wind  
Wind Speed 12 mph (SSW)    
Max Wind Speed 30 mph    
Max Gust Speed 38 mph    
Visibility 10 miles    
Events      
Averages and records for this station are not official NWS values.
T = Trace of Precipitation, MM = Missing Value Source: NWS Daily Summary

Daily Weather History Graph

Daily Weather History Graph

Search for Another Location

Airport:

Trip Planner

Search our weather history database for the weather conditions in past years. The results will help you decide how hot, cold, wet, or windy it might be!

Date:

Astronomy

Nov. 06, 2012 Rise Set
Actual Time 6:38 AM PST 4:31 PM PST
Civil Twilight 6:07 AM PST 5:03 PM PST
Nautical Twilight 5:32 AM PST 5:38 PM PST
Astronomical Twilight 4:57 AM PST 6:12 PM PST
Moon 11:19 PM PST (11/6) 12:30 PM PST (11/6)
Length of Visible Light 10h 55m
Length of Day
9h 53m
Waning Gibbous, 52% of the Moon is Illuminated
Nov 6
Waning Gibbous
Nov 6
Last Quarter
Nov 13
New
Nov 20
First Quarter
Nov 28
Full

Hourly Weather History & Observations

Time (PST) Temp. Windchill Dew Point Humidity Pressure Visibility Wind Dir Wind Speed Gust Speed Precip Events Conditions
12:15 AM 42.8 °F 38.6 °F 32.0 °F 66% 30.23 in 10.0 mi North 6.9 mph - N/A   Clear
12:35 AM 41.0 °F 37.1 °F 32.0 °F 70% 30.23 in 10.0 mi North 5.8 mph - N/A   Clear
12:55 AM 44.6 °F 42.2 °F 35.6 °F 71% 30.23 in 10.0 mi North 4.6 mph - N/A   Clear
1:15 AM 44.6 °F 40.7 °F 35.6 °F 71% 30.23 in 10.0 mi NNW 6.9 mph - N/A   Clear
1:35 AM 44.6 °F 42.2 °F 37.4 °F 76% 30.23 in 10.0 mi North 4.6 mph - N/A   Clear
1:55 AM 44.6 °F 41.4 °F 37.4 °F 76% 30.23 in 10.0 mi NNW 5.8 mph - N/A   Clear
2:15 AM 44.6 °F 41.4 °F 35.6 °F 71% 30.22 in 10.0 mi NNW 5.8 mph - N/A   Clear
2:35 AM 44.6 °F 42.2 °F 35.6 °F 71% 30.22 in 10.0 mi NNW 4.6 mph - N/A   Clear
2:55 AM 41.0 °F 38.0 °F 33.8 °F 76% 30.21 in 10.0 mi NNW 4.6 mph - N/A   Clear
3:15 AM 42.8 °F 39.3 °F 33.8 °F 70% 30.21 in 10.0 mi NNW 5.8 mph - N/A   Clear
3:35 AM 42.8 °F 38.6 °F 35.6 °F 76% 30.20 in 10.0 mi NNW 6.9 mph - N/A   Clear
3:55 AM 44.6 °F 41.4 °F 35.6 °F 71% 30.20 in 10.0 mi NNW 5.8 mph - N/A   Clear
4:15 AM 42.8 °F 38.0 °F 33.8 °F 70% 30.20 in 10.0 mi North 8.1 mph - N/A   Clear
4:35 AM 42.8 °F - 35.6 °F 76% 30.20 in 10.0 mi Calm Calm - N/A   Clear
4:55 AM 44.6 °F 42.2 °F 37.4 °F 76% 30.19 in 10.0 mi NW 4.6 mph - N/A   Clear
5:15 AM 50.0 °F - 41.0 °F 71% 30.19 in 10.0 mi SSW 3.5 mph - N/A   Clear
5:35 AM 48.2 °F - 37.4 °F 66% 30.19 in 10.0 mi Calm Calm - N/A   Clear
5:55 AM 46.4 °F 41.9 °F 33.8 °F 62% 30.18 in 10.0 mi South 9.2 mph - N/A   Clear
6:15 AM 53.6 °F - 41.0 °F 62% 30.18 in 10.0 mi South 16.1 mph 21.9 mph N/A   Clear
6:35 AM 53.6 °F - 39.2 °F 58% 30.18 in 10.0 mi South 19.6 mph 24.2 mph N/A   Clear
6:55 AM 55.4 °F - 37.4 °F 51% 30.18 in 10.0 mi South 20.7 mph - N/A   Clear
7:15 AM 55.4 °F - 37.4 °F 51% 30.18 in 10.0 mi South 16.1 mph - N/A   Clear
7:35 AM 55.4 °F - 37.4 °F 51% 30.18 in 10.0 mi South 16.1 mph - N/A   Clear
7:55 AM 57.2 °F - 37.4 °F 48% 30.18 in 10.0 mi South 16.1 mph 21.9 mph N/A   Clear
8:15 AM 57.2 °F - 37.4 °F 48% 30.18 in 10.0 mi South 17.3 mph 25.3 mph N/A   Clear
8:35 AM 57.2 °F - 37.4 °F 48% 30.18 in 10.0 mi South 17.3 mph 21.9 mph N/A   Clear
8:55 AM 59.0 °F - 39.2 °F 48% 30.17 in 10.0 mi South 18.4 mph - N/A   Clear
9:15 AM 62.6 °F - 39.2 °F 42% 30.16 in 10.0 mi South 17.3 mph 24.2 mph N/A   Clear
9:35 AM 60.8 °F - 39.2 °F 45% 30.15 in 10.0 mi South 20.7 mph 29.9 mph N/A   Clear
9:55 AM 60.8 °F - 37.4 °F 42% 30.15 in 10.0 mi South 18.4 mph 28.8 mph N/A   Clear
10:15 AM 62.6 °F - 37.4 °F 39% 30.13 in 10.0 mi SSW 27.6 mph 38.0 mph N/A   Clear
10:35 AM 62.6 °F - 37.4 °F 39% 30.12 in 10.0 mi South 27.6 mph 34.5 mph N/A   Clear
10:55 AM 62.6 °F - 37.4 °F 39% 30.11 in 10.0 mi South 29.9 mph 35.7 mph N/A   Clear
11:15 AM 62.6 °F - 39.2 °F 42% 30.11 in 10.0 mi SSW 25.3 mph 34.5 mph N/A   Clear
11:35 AM 62.6 °F - 39.2 °F 42% 30.10 in 10.0 mi South 24.2 mph 33.4 mph N/A   Clear
11:55 AM 64.4 °F - 39.2 °F 40% 30.09 in 10.0 mi South 24.2 mph 32.2 mph N/A   Clear
12:15 PM 64.4 °F - 39.2 °F 40% 30.09 in 10.0 mi South 13.8 mph 25.3 mph N/A   Clear
12:35 PM 64.4 °F - 39.2 °F 40% 30.07 in 10.0 mi South 16.1 mph 20.7 mph N/A   Clear
12:55 PM 66.2 °F - 39.2 °F 37% 30.06 in 10.0 mi SSE 20.7 mph 28.8 mph N/A   Clear
1:15 PM 66.2 °F - 39.2 °F 37% 30.05 in 10.0 mi South 17.3 mph 24.2 mph N/A   Clear
1:35 PM 68.0 °F - 39.2 °F 35% 30.03 in 10.0 mi SSE 12.7 mph 18.4 mph N/A   Clear
1:55 PM 66.2 °F - 39.2 °F 37% 30.03 in 10.0 mi SSE 18.4 mph 27.6 mph N/A   Clear
2:15 PM 68.0 °F - 39.2 °F 35% 30.02 in 10.0 mi South 20.7 mph 26.5 mph N/A   Clear
2:35 PM 66.2 °F - 37.4 °F 35% 30.01 in 10.0 mi South 15.0 mph 27.6 mph N/A   Clear
2:55 PM 66.2 °F - 37.4 °F 35% 30.01 in 10.0 mi South 17.3 mph 25.3 mph N/A   Clear
3:15 PM 66.2 °F - 37.4 °F 35% 30.00 in 10.0 mi South 15.0 mph 21.9 mph N/A   Clear
3:35 PM 66.2 °F - 37.4 °F 35% 30.00 in 10.0 mi South 20.7 mph 27.6 mph N/A   Clear
3:55 PM 66.2 °F - 37.4 °F 35% 29.99 in 10.0 mi South 17.3 mph - N/A   Clear
4:15 PM 64.4 °F - 37.4 °F 37% 29.98 in 10.0 mi South 18.4 mph 25.3 mph N/A   Clear
4:35 PM 64.4 °F - 37.4 °F 37% 29.98 in 10.0 mi South 15.0 mph 29.9 mph N/A   Clear
4:55 PM 62.6 °F - 37.4 °F 39% 29.98 in 10.0 mi SSW 23.0 mph 26.5 mph N/A   Clear
5:15 PM 62.6 °F - 37.4 °F 39% 29.99 in 10.0 mi South 19.6 mph - N/A   Clear
5:35 PM 62.6 °F - 37.4 °F 39% 29.99 in 10.0 mi SSW 18.4 mph - N/A   Clear
5:55 PM 62.6 °F - 37.4 °F 39% 29.99 in 10.0 mi South 17.3 mph - N/A   Clear
6:15 PM 60.8 °F - 37.4 °F 42% 29.99 in 10.0 mi SSW 9.2 mph - N/A   Clear
6:35 PM 60.8 °F - 37.4 °F 42% 29.98 in 10.0 mi South 12.7 mph 24.2 mph N/A   Clear
6:55 PM 60.8 °F - 35.6 °F 39% 29.97 in 10.0 mi South 12.7 mph 19.6 mph N/A   Clear
7:15 PM 60.8 °F - 35.6 °F 39% 29.97 in 10.0 mi South 18.4 mph - N/A   Clear
7:35 PM 60.8 °F - 35.6 °F 39% 29.96 in 10.0 mi South 16.1 mph - N/A   Clear
7:55 PM 60.8 °F - 35.6 °F 39% 29.97 in 10.0 mi SSW 19.6 mph 24.2 mph N/A   Clear
8:15 PM 59.0 °F - 35.6 °F 42% 29.96 in 10.0 mi South 15.0 mph - N/A   Clear
8:35 PM 59.0 °F - 35.6 °F 42% 29.96 in 10.0 mi South 15.0 mph - N/A   Clear
8:55 PM 59.0 °F - 35.6 °F 42% 29.97 in 10.0 mi South 9.2 mph - N/A   Clear
9:15 PM 59.0 °F - 35.6 °F 42% 29.96 in 10.0 mi South 18.4 mph - N/A   Clear
9:35 PM 59.0 °F - 35.6 °F 42% 29.96 in 10.0 mi South 17.3 mph - N/A   Clear
9:55 PM 57.2 °F - 35.6 °F 44% 29.96 in 10.0 mi SSW 17.3 mph 20.7 mph N/A   Clear
10:15 PM 59.0 °F - 35.6 °F 42% 29.97 in 10.0 mi SSW 17.3 mph - N/A   Clear
10:35 PM 59.0 °F - 35.6 °F 42% 29.97 in 10.0 mi South 16.1 mph - N/A   Clear
10:55 PM 59.0 °F - 35.6 °F 42% 29.97 in 10.0 mi SSW 16.1 mph - N/A   Mostly Cloudy
11:15 PM 59.0 °F - 35.6 °F 42% 29.96 in 10.0 mi SSW 16.1 mph - N/A   Overcast
11:35 PM 55.4 °F - 33.8 °F 44% 29.97 in 10.0 mi SSW 8.1 mph - N/A   Mostly Cloudy
11:55 PM 53.6 °F - 35.6 °F 51% 29.96 in 10.0 mi Calm Calm - N/A   Partly Cloudy